When you browse on this site, cookies collect data to enhance your experience and personalize the content and advertising you see.
Visit our Privacy Policy to learn more. By continuing to use the site, you agree to this use of cookies and data.
  • In Österreich
  • Länderverzeichnis
  • Für 7 Tage
  • Wassertemperatur
  • Wetterkarte
  • News
  • Widgets
  • user-avatar
    Anmelden

    Stündliche Wetter Kyrdshali

    Heute, 24 Oktober, Donnerstag

    Zeit Temperatur Niederschläge Wind Luftdruck Luftfeuchtigkeit
    00:00 +14°C° 0 mm 1 m/S 731 mmHg 53%
    01:00 +14°C° 0 mm 1 m/S 730 mmHg 54%
    02:00 +14°C° 0 mm 1 m/S 730 mmHg 54%
    03:00 +13°C° 0 mm 1 m/S 730 mmHg 56%
    04:00 +13°C° 0 mm 1 m/S 730 mmHg 57%
    05:00 +13°C° 0 mm 1 m/S 730 mmHg 59%
    06:00 +14°C° 0 mm 1 m/S 730 mmHg 58%
    07:00 +14°C° 0 mm 1 m/S 730 mmHg 56%
    08:00 +15°C° 0 mm 1 m/S 730 mmHg 55%
    09:00 +18°C° 0 mm 1 m/S 730 mmHg 48%
    10:00 +19°C° 0 mm 2 m/S 730 mmHg 41%
    11:00 +23°C° 0 mm 2 m/S 730 mmHg 34%
    12:00 +23°C° 0 mm 2 m/S 730 mmHg 32%
    13:00 +24°C° 0 mm 2 m/S 730 mmHg 30%
    14:00 +25°C° 0 mm 2 m/S 729 mmHg 28%
    15:00 +23°C° 0 mm 2 m/S 729 mmHg 31%
    16:00 +22°C° 0 mm 1 m/S 728 mmHg 34%
    17:00 +21°C° 0 mm 1 m/S 728 mmHg 38%
    18:00 +19°C° 0 mm 1 m/S 728 mmHg 40%
    19:00 +18°C° 0 mm 1 m/S 728 mmHg 43%
    20:00 +16°C° 0 mm 1 m/S 728 mmHg 45%
    21:00 +15°C° 0 mm 1 m/S 728 mmHg 47%
    22:00 +15°C° 0 mm 1 m/S 728 mmHg 48%
    23:00 +15°C° 0 mm 1 m/S 728 mmHg 50%

    Morgen, 25 Oktober, Freitag

    Zeit Temperatur Niederschläge Wind Luftdruck Luftfeuchtigkeit
    00:00 +14°C° 0 mm 1 m/S 728 mmHg 51%
    01:00 +14°C° 0 mm 1 m/S 728 mmHg 52%
    02:00 +13°C° 0 mm 1 m/S 728 mmHg 54%
    03:00 +13°C° 0 mm 1 m/S 728 mmHg 55%
    04:00 +13°C° 0 mm 1 m/S 728 mmHg 56%
    05:00 +12°C° 0 mm 1 m/S 728 mmHg 58%
    06:00 +13°C° 0 mm 1 m/S 728 mmHg 56%
    07:00 +14°C° 0 mm 1 m/S 728 mmHg 55%
    08:00 +15°C° 0 mm 1 m/S 728 mmHg 53%
    09:00 +18°C° 0 mm 1 m/S 729 mmHg 47%
    10:00 +20°C° 0 mm 1 m/S 729 mmHg 42%
    11:00 +21°C° 0 mm 2 m/S 729 mmHg 36%
    12:00 +23°C° 0 mm 2 m/S 729 mmHg 33%
    13:00 +24°C° 0 mm 2 m/S 729 mmHg 31%
    14:00 +24°C° 0 mm 2 m/S 729 mmHg 28%
    15:00 +23°C° 0 mm 2 m/S 729 mmHg 32%
    16:00 +22°C° 0 mm 1 m/S 729 mmHg 36%
    17:00 +20°C° 0 mm 1 m/S 728 mmHg 39%
    18:00 +19°C° 0 mm 1 m/S 729 mmHg 41%
    19:00 +18°C° 0 mm 1 m/S 729 mmHg 43%
    20:00 +16°C° 0 mm 1 m/S 729 mmHg 45%
    21:00 +15°C° 0 mm 1 m/S 729 mmHg 46%
    22:00 +15°C° 0 mm 1 m/S 730 mmHg 46%
    23:00 +15°C° 0 mm 1 m/S 730 mmHg 46%

    übermorgen, 26 Oktober, Samstag

    Zeit Temperatur Niederschläge Wind Luftdruck Luftfeuchtigkeit
    00:00 +14°C° 0 mm 1 m/S 730 mmHg 48%
    01:00 +14°C° 0 mm 1 m/S 730 mmHg 50%
    02:00 +13°C° 0 mm 1 m/S 730 mmHg 52%
    03:00 +13°C° 0 mm 1 m/S 730 mmHg 54%
    04:00 +13°C° 0 mm 1 m/S 730 mmHg 56%
    05:00 +13°C° 0 mm 1 m/S 730 mmHg 58%
    06:00 +13°C° 0 mm 1 m/S 731 mmHg 57%
    07:00 +14°C° 0 mm 1 m/S 731 mmHg 55%
    08:00 +15°C° 0 mm 1 m/S 731 mmHg 54%
    09:00 +17°C° 0 mm 2 m/S 732 mmHg 47%
    10:00 +19°C° 0 mm 2 m/S 732 mmHg 39%
    11:00 +21°C° 0 mm 2 m/S 732 mmHg 32%
    12:00 +22°C° 0 mm 3 m/S 732 mmHg 30%
    13:00 +24°C° 0 mm 3 m/S 732 mmHg 29%
    14:00 +24°C° 0 mm 3 m/S 732 mmHg 27%
    15:00 +22°C° 0 mm 3 m/S 732 mmHg 31%
    16:00 +21°C° 0 mm 2 m/S 731 mmHg 35%
    17:00 +20°C° 0 mm 1 m/S 731 mmHg 39%
    18:00 +19°C° 0 mm 1 m/S 731 mmHg 41%
    19:00 +18°C° 0 mm 1 m/S 731 mmHg 43%
    20:00 +16°C° 0 mm 1 m/S 731 mmHg 45%
    21:00 +15°C° 0 mm 1 m/S 731 mmHg 45%
    22:00 +15°C° 0 mm 1 m/S 731 mmHg 45%
    23:00 +15°C° 0 mm 1 m/S 731 mmHg 46%

    27 Oktober, Sonntag

    Zeit Temperatur Niederschläge Wind Luftdruck Luftfeuchtigkeit
    00:00 +14°C° 0 mm 1 m/S 731 mmHg 46%
    01:00 +14°C° 0 mm 1 m/S 731 mmHg 47%
    02:00 +14°C° 0 mm 1 m/S 731 mmHg 48%
    03:00 +14°C° 0 mm 1 m/S 731 mmHg 49%
    04:00 +13°C° 0 mm 1 m/S 731 mmHg 50%
    05:00 +13°C° 0 mm 1 m/S 731 mmHg 50%
    06:00 +14°C° 0 mm 1 m/S 731 mmHg 49%
    07:00 +14°C° 0 mm 1 m/S 731 mmHg 47%
    08:00 +15°C° 0 mm 1 m/S 731 mmHg 46%
    09:00 +18°C° 0 mm 1 m/S 731 mmHg 41%
    10:00 +20°C° 0 mm 1 m/S 731 mmHg 35%
    11:00 +23°C° 0 mm 1 m/S 732 mmHg 30%
    12:00 +23°C° 0 mm 1 m/S 731 mmHg 28%
    13:00 +24°C° 0 mm 2 m/S 731 mmHg 26%
    14:00 +25°C° 0 mm 2 m/S 730 mmHg 25%
    15:00 +23°C° 0 mm 2 m/S 730 mmHg 28%
    16:00 +22°C° 0 mm 1 m/S 729 mmHg 32%
    17:00 +20°C° 0 mm 1 m/S 729 mmHg 36%
    18:00 +19°C° 0 mm 1 m/S 729 mmHg 38%
    19:00 +18°C° 0 mm 1 m/S 729 mmHg 40%
    20:00 +16°C° 0 mm 1 m/S 729 mmHg 42%
    21:00 +15°C° 0 mm 1 m/S 729 mmHg 43%
    22:00 +15°C° 0 mm 1 m/S 729 mmHg 43%
    23:00 +14°C° 0 mm 1 m/S 728 mmHg 44%

    28 Oktober, Montag

    Zeit Temperatur Niederschläge Wind Luftdruck Luftfeuchtigkeit
    00:00 +14°C° 0 mm 1 m/S 728 mmHg 45%
    01:00 +14°C° 0 mm 1 m/S 728 mmHg 45%
    02:00 +13°C° 0 mm 1 m/S 728 mmHg 46%
    03:00 +13°C° 0 mm 1 m/S 727 mmHg 47%
    04:00 +13°C° 0 mm 1 m/S 727 mmHg 48%
    05:00 +12°C° 0 mm 1 m/S 727 mmHg 48%
    06:00 +13°C° 0 mm 1 m/S 727 mmHg 47%
    07:00 +14°C° 0 mm 1 m/S 727 mmHg 46%
    08:00 +13°C° 0 mm 0 m/S 727 mmHg 45%
    09:00 +16°C° 0 mm 1 m/S 727 mmHg 41%
    10:00 +20°C° 0 mm 1 m/S 727 mmHg 36%
    11:00 +22°C° 0 mm 1 m/S 727 mmHg 32%
    12:00 +23°C° 0 mm 1 m/S 727 mmHg 30%
    13:00 +23°C° 0 mm 1 m/S 726 mmHg 29%
    14:00 +24°C° 0 mm 1 m/S 726 mmHg 27%
    15:00 +22°C° 0 mm 1 m/S 725 mmHg 32%
    16:00 +21°C° 0 mm 1 m/S 725 mmHg 36%
    17:00 +19°C° 0 mm 1 m/S 725 mmHg 41%
    18:00 +18°C° 0 mm 1 m/S 725 mmHg 44%
    19:00 +16°C° 0 mm 1 m/S 725 mmHg 47%
    20:00 +15°C° 0 mm 1 m/S 725 mmHg 50%
    21:00 +15°C° 0 mm 1 m/S 725 mmHg 50%
    22:00 +15°C° 0 mm 1 m/S 725 mmHg 50%
    23:00 +15°C° 0 mm 1 m/S 725 mmHg 49%

    29 Oktober, Dienstag

    Zeit Temperatur Niederschläge Wind Luftdruck Luftfeuchtigkeit
    00:00 +15°C° 0 mm 1 m/S 725 mmHg 49%
    01:00 +14°C° 0 mm 1 m/S 725 mmHg 49%
    02:00 +14°C° 0 mm 1 m/S 725 mmHg 49%
    03:00 +14°C° 0 mm 1 m/S 725 mmHg 50%
    04:00 +13°C° 0 mm 1 m/S 725 mmHg 50%
    05:00 +13°C° 0 mm 1 m/S 724 mmHg 51%
    06:00 +13°C° 0 mm 0 m/S 725 mmHg 50%
    07:00 +13°C° 0 mm 0 m/S 725 mmHg 49%
    08:00 +14°C° 0 mm 0 m/S 725 mmHg 48%
    09:00 +18°C° 0 mm 1 m/S 726 mmHg 44%
    10:00 +20°C° 0 mm 1 m/S 726 mmHg 39%
    11:00 +22°C° 0 mm 1 m/S 726 mmHg 35%
    12:00 +23°C° 0 mm 1 m/S 726 mmHg 34%
    13:00 +23°C° 0 mm 2 m/S 726 mmHg 33%
    14:00 +24°C° 0 mm 2 m/S 726 mmHg 32%
    15:00 +21°C° 0 mm 2 m/S 725 mmHg 40%
    16:00 +20°C° 0 mm 2 m/S 725 mmHg 48%
    17:00 +18°C° 0 mm 2 m/S 725 mmHg 56%
    18:00 +17°C° 0 mm 2 m/S 725 mmHg 62%
    19:00 +16°C° 0 mm 1 m/S 725 mmHg 69%
    20:00 +14°C° 0 mm 1 m/S 725 mmHg 76%
    21:00 +14°C° 0 mm 1 m/S 725 mmHg 75%
    22:00 +14°C° 0 mm 1 m/S 725 mmHg 75%
    23:00 +14°C° 0 mm 1 m/S 725 mmHg 74%

    30 Oktober, Mittwoch

    Zeit Temperatur Niederschläge Wind Luftdruck Luftfeuchtigkeit
    00:00 +13°C° 0 mm 1 m/S 725 mmHg 72%
    01:00 +13°C° 0 mm 1 m/S 725 mmHg 71%
    02:00 +13°C° 0 mm 1 m/S 725 mmHg 69%
    03:00 +13°C° 0 mm 1 m/S 725 mmHg 67%
    04:00 +12°C° 0 mm 1 m/S 725 mmHg 66%
    05:00 +12°C° 0 mm 1 m/S 725 mmHg 64%
    06:00 +13°C° 0 mm 1 m/S 725 mmHg 61%
    07:00 +14°C° 0 mm 1 m/S 725 mmHg 58%
    08:00 +13°C° 0 mm 0 m/S 725 mmHg 55%
    09:00 +16°C° 0 mm 1 m/S 725 mmHg 49%
    10:00 +20°C° 0 mm 1 m/S 725 mmHg 43%
    11:00 +22°C° 0 mm 1 m/S 725 mmHg 37%
    12:00 +23°C° 0 mm 2 m/S 725 mmHg 36%
    13:00 +23°C° 0 mm 2 m/S 725 mmHg 35%
    14:00 +24°C° 0 mm 3 m/S 725 mmHg 34%
    15:00 +21°C° 0 mm 3 m/S 724 mmHg 43%
    16:00 +20°C° 0 mm 2 m/S 724 mmHg 52%
    17:00 +18°C° 0 mm 2 m/S 724 mmHg 62%
    18:00 +17°C° 0 mm 2 m/S 724 mmHg 69%
    19:00 +15°C° 0 mm 2 m/S 724 mmHg 76%
    20:00 +14°C° 0 mm 2 m/S 724 mmHg 83%
    21:00 +14°C° 0 mm 2 m/S 724 mmHg 81%
    22:00 +14°C° 0 mm 2 m/S 724 mmHg 80%
    23:00 +13°C° 0 mm 1 m/S 724 mmHg 78%
    Mehr zeigen